Orbital Elements
Epoch 2022 Aug. 9.0 TT = JDT 2459800.5
T 2022 Feb. 19.04718 TT Rudenko
q 1.6042489 (2000.0) P Q
z +0.0209768 Peri. 305.66166 +0.32758037 -0.00605023
+/-0.0000334 Node 280.72311 -0.17670958 -0.98272653
e 0.9663480 Incl. 105.93047 -0.92815129 +0.18496474
>From 167 observations 2022 May 5-Sept. 22, mean residual 0".5.
|